,,Stat5,,Stat1,,Stat2,,Stat3,,Stat4,,Wind1,,Wind1,
time,status,PA1M_AVG,status,PR1M_SUM,status,RH1M_AVG,status,SR1M_AVG,status,TA1M_AVG,status,W1dAve1m,status,W1sAve1m,
2002-03-10, 00:00:00,VALID,919.245,VALID,0,VALID,93.6549,VALID,0,VALID,19.6667,VALID,142,VALID,1.04455,
2002-03-10, 00:01:00,VALID,919.215,VALID,0,VALID,93.955,VALID,0.0169808,VALID,19.6957,VALID,144,VALID,2.62563,
2002-03-10, 00:02:00,VALID,919.203,VALID,0,VALID,93.6702,VALID,0,VALID,19.7283,VALID,150,VALID,1.67578,
2002-03-10, 00:03:01,VALID,919.187,VALID,0,VALID,93.613,VALID,0.0169808,VALID,19.7447,VALID,144,VALID,1.50123,
2002-03-10, 00:04:00,VALID,919.179,VALID,0,VALID,93.5062,VALID,0.0339617,VALID,19.7353,VALID,135,VALID,1.40516,
2002-03-10, 00:05:00,VALID,919.167,VALID,0,VALID,93.6638,VALID,0.0169808,VALID,19.7062,VALID,125,VALID,0.802484,
2002-03-10, 00:06:00,VALID,919.143,VALID,0,VALID,93.7643,VALID,0.0169808,VALID,19.6965,VALID,112,VALID,1.21284,
2002-03-10, 00:07:00,VALID,919.127,VALID,0,VALID,93.8571,VALID,0.0339617,VALID,19.6545,VALID,102,VALID,1.4706,
2002-03-10, 00:08:01,VALID,919.101,VALID,0,VALID,94.1178,VALID,0,VALID,19.6217,VALID,128,VALID,1.52886,
2002-03-10, 00:09:00,VALID,919.068,VALID,0,VALID,94.0542,VALID,-0.0169808,VALID,19.6359,VALID,113,VALID,1.70038,
2002-03-10, 00:10:00,VALID,919.071,VALID,0,VALID,94.0352,VALID,-0.0679233,VALID,19.6321,VALID,131,VALID,1.6262,
2002-03-10, 00:11:00,VALID,919.058,VALID,0,VALID,93.95,VALID,0,VALID,19.6585,VALID,136,VALID,1.21987,
2002-03-10, 00:12:00,VALID,919.053,VALID,0,VALID,93.8622,VALID,0,VALID,19.6388,VALID,104,VALID,1.35026,
2002-03-10, 00:13:01,VALID,919.053,VALID,0,VALID,94.1102,VALID,-0.0169808,VALID,19.6195,VALID,125,VALID,1.76122,
2002-03-10, 00:14:00,VALID,919.036,VALID,0,VALID,94.1343,VALID,-0.0169808,VALID,19.6292,VALID,123,VALID,1.7003,
2002-03-10, 00:15:00,VALID,919.035,VALID,0,VALID,94.0631,VALID,0,VALID,19.6224,VALID,114,VALID,0.972451,
2002-03-10, 00:16:00,VALID,919.007,VALID,0,VALID,94.0415,VALID,0,VALID,19.6259,VALID,124,VALID,1.56836,
2002-03-10, 00:17:01,VALID,918.976,VALID,0,VALID,93.9055,VALID,0,VALID,19.6393,VALID,123,VALID,1.38867,
2002-03-10, 00:18:00,VALID,918.964,VALID,0,VALID,93.9843,VALID,-0.0169808,VALID,19.6227,VALID,132,VALID,1.43429,
2002-03-10, 00:19:00,VALID,918.935,VALID,0,VALID,94.011,VALID,0,VALID,19.6227,VALID,122,VALID,1.34866,
2002-03-10, 00:20:00,VALID,918.907,VALID,0,VALID,94.0568,VALID,-0.0169808,VALID,19.6292,VALID,123,VALID,1.36402,
2002-03-10, 00:21:00,VALID,918.882,VALID,0,VALID,93.9309,VALID,-0.0169808,VALID,19.6386,VALID,125,VALID,1.58281,
2002-03-10, 00:22:01,VALID,918.863,VALID,0,VALID,93.8953,VALID,0,VALID,19.6453,VALID,112,VALID,1.47135,
2002-03-10, 00:23:00,VALID,918.836,VALID,0,VALID,93.866,VALID,-0.0169808,VALID,19.6458,VALID,125,VALID,1.47736,
2002-03-10, 00:24:01,VALID,918.811,VALID,0,VALID,93.8139,VALID,0,VALID,19.6456,VALID,115,VALID,1.56473,
2002-03-10, 00:25:01,VALID,918.786,VALID,0,VALID,93.8063,VALID,-0.0169808,VALID,19.655,VALID,116,VALID,1.46242,
2002-03-10, 00:26:00,VALID,918.788,VALID,0,VALID,93.8177,VALID,0.0509425,VALID,19.6605,VALID,114,VALID,1.29286,
2002-03-10, 00:27:00,VALID,918.788,VALID,0,VALID,93.7567,VALID,0.0849042,VALID,19.6702,VALID,120,VALID,1.17556,
2002-03-10, 00:28:01,VALID,918.813,VALID,0,VALID,93.7821,VALID,0.0849042,VALID,19.6634,VALID,126,VALID,0.979167,
2002-03-10, 00:29:00,VALID,918.828,VALID,0,VALID,93.8063,VALID,0.0849042,VALID,19.6381,VALID,136,VALID,0.542101,
2002-03-10, 00:30:00,VALID,918.856,VALID,0,VALID,93.9156,VALID,0.0509425,VALID,19.6215,VALID,121,VALID,0.953125,
2002-03-10, 00:31:00,VALID,918.845,VALID,0,VALID,94.0708,VALID,0.0679233,VALID,19.6123,VALID,108,VALID,1.51042,
2002-03-10, 00:32:01,VALID,918.852,VALID,0,VALID,94.2284,VALID,0.0339617,VALID,19.5859,VALID,127,VALID,1.50109,
2002-03-10, 00:33:00,VALID,918.866,VALID,0,VALID,94.3149,VALID,0.0509425,VALID,19.5566,VALID,126,VALID,1.44071,
2002-03-10, 00:34:00,VALID,918.85,VALID,0,VALID,94.4014,VALID,0.101885,VALID,19.5536,VALID,136,VALID,1.24063,
2002-03-10, 00:35:00,VALID,918.832,VALID,0,VALID,94.5425,VALID,0.0849042,VALID,19.5442,VALID,136,VALID,1.42061,
2002-03-10, 00:36:00,VALID,918.812,VALID,0,VALID,94.4751,VALID,0.0509425,VALID,19.5474,VALID,137,VALID,1.13549,
2002-03-10, 00:37:00,VALID,918.806,VALID,0,VALID,94.4599,VALID,0.0849042,VALID,19.5474,VALID,130,VALID,1.06727,
2002-03-10, 00:38:00,VALID,918.789,VALID,0,VALID,94.3607,VALID,0.0169808,VALID,19.531,VALID,99,VALID,1.40505,
2002-03-10, 00:39:00,VALID,918.79,VALID,0,VALID,94.5641,VALID,0.0679233,VALID,19.5283,VALID,129,VALID,1.22232,
2002-03-10, 00:40:01,VALID,918.77,VALID,0,VALID,94.5807,VALID,-0.0339617,VALID,19.5002,VALID,125,VALID,1.14105,
2002-03-10, 00:41:00,VALID,918.76,VALID,0,VALID,94.6239,VALID,-0.0849042,VALID,19.4912,VALID,120,VALID,0.870313,
2002-03-10, 00:42:00,VALID,918.75,VALID,0,VALID,94.7345,VALID,-0.0679233,VALID,19.4721,VALID,119,VALID,0.986111,
2002-03-10, 00:43:00,VALID,918.726,VALID,0,VALID,94.793,VALID,-0.0339617,VALID,19.4584,VALID,114,VALID,1.1556,
2002-03-10, 00:44:00,VALID,918.701,VALID,0,VALID,94.8859,VALID,-0.0509425,VALID,19.4651,VALID,130,VALID,1.71571,
2002-03-10, 00:45:00,VALID,918.698,VALID,0,VALID,94.774,VALID,-0.0509425,VALID,19.4848,VALID,137,VALID,1.45025,
2002-03-10, 00:46:00,VALID,918.677,VALID,0,VALID,94.6519,VALID,-0.0509425,VALID,19.4977,VALID,142,VALID,1.67079,
2002-03-10, 00:47:01,VALID,918.661,VALID,0,VALID,94.5082,VALID,-0.0339617,VALID,19.5109,VALID,119,VALID,1.21875,
2002-03-10, 00:48:01,VALID,918.661,VALID,0,VALID,94.3899,VALID,-0.0339617,VALID,19.5007,VALID,130,VALID,1.01843,
2002-03-10, 00:49:00,VALID,918.646,VALID,0,VALID,94.4853,VALID,-0.0339617,VALID,19.4848,VALID,140,VALID,1.23237,
2002-03-10, 00:50:00,VALID,918.636,VALID,0,VALID,94.732,VALID,-0.0509425,VALID,19.4718,VALID,147,VALID,1.64633,
2002-03-10, 00:51:00,VALID,918.622,VALID,0,VALID,94.7244,VALID,-0.0339617,VALID,19.4716,VALID,140,VALID,0.9875,
2002-03-10, 00:52:01,VALID,918.607,VALID,0,VALID,94.6849,VALID,-0.0849042,VALID,19.4783,VALID,121,VALID,1.42817,
2002-03-10, 00:53:00,VALID,918.614,VALID,0,VALID,94.6074,VALID,-0.0509425,VALID,19.4681,VALID,150,VALID,1.10657,
2002-03-10, 00:54:01,VALID,918.604,VALID,0,VALID,94.5985,VALID,-0.0679233,VALID,19.4788,VALID,132,VALID,0.745313,
2002-03-10, 00:55:01,VALID,918.596,VALID,0,VALID,94.4573,VALID,-0.0169808,VALID,19.4622,VALID,104,VALID,0.787796,
2002-03-10, 00:56:00,VALID,918.607,VALID,0,VALID,94.7244,VALID,-0.0339617,VALID,19.4299,VALID,103,VALID,1.27969,
2002-03-10, 00:57:00,VALID,918.59,VALID,0,VALID,94.8706,VALID,-0.0509425,VALID,19.44,VALID,126,VALID,1.47613,
2002-03-10, 00:58:01,VALID,918.578,VALID,0,VALID,94.821,VALID,-0.0339617,VALID,19.4398,VALID,120,VALID,1.2908,
2002-03-10, 00:59:00,VALID,918.559,VALID,0,VALID,94.8096,VALID,-0.0339617,VALID,19.446,VALID,114,VALID,1.81771,
2002-03-10, 01:00:00,VALID,918.536,VALID,0,VALID,94.6252,VALID,-0.0509425,VALID,19.4947,VALID,93,VALID,1.38692,
2002-03-10, 01:01:00,VALID,918.535,VALID,0,VALID,94.3543,VALID,-0.0849042,VALID,19.5076,VALID,112,VALID,1.02865,
2002-03-10, 01:02:01,VALID,918.52,VALID,0,VALID,94.2513,VALID,-0.0509425,VALID,19.5205,VALID,126,VALID,1.60612,
2002-03-10, 01:03:00,VALID,918.521,VALID,0,VALID,94.1013,VALID,-0.0849042,VALID,19.5203,VALID,91,VALID,1.53906,
2002-03-10, 01:04:00,VALID,918.556,VALID,0,VALID,94.306,VALID,-0.0679233,VALID,19.5141,VALID,100,VALID,1.31339,
2002-03-10, 01:05:00,VALID,918.533,VALID,0,VALID,94.2323,VALID,-0.0849042,VALID,19.5173,VALID,79,VALID,1.15942,
2002-03-10, 01:06:00,VALID,918.543,VALID,0,VALID,94.2234,VALID,-0.0679233,VALID,19.4915,VALID,78,VALID,1.82098,
2002-03-10, 01:07:00,VALID,918.544,VALID,0,VALID,94.2145,VALID,-0.0169808,VALID,19.4689,VALID,101,VALID,1.95009,
2002-03-10, 01:08:00,VALID,918.564,VALID,0,VALID,94.1293,VALID,-0.0339617,VALID,19.4947,VALID,100,VALID,1.76743,
2002-03-10, 01:09:00,VALID,918.56,VALID,0,VALID,93.9347,VALID,-0.0339617,VALID,19.5273,VALID,112,VALID,1.63571,
2002-03-10, 01:10:01,VALID,918.552,VALID,0,VALID,93.6066,VALID,0.0169808,VALID,19.5814,VALID,114,VALID,0.995355,
2002-03-10, 01:11:00,VALID,918.536,VALID,0,VALID,93.4248,VALID,0,VALID,19.6105,VALID,127,VALID,1.35469,
2002-03-10, 01:12:00,VALID,918.508,VALID,0,VALID,93.4578,VALID,0.0169808,VALID,19.6234,VALID,123,VALID,1.3661,
2002-03-10, 01:13:00,VALID,918.468,VALID,0,VALID,93.5583,VALID,0.0169808,VALID,19.6108,VALID,134,VALID,1.398,
2002-03-10, 01:14:00,VALID,918.43,VALID,0,VALID,93.5329,VALID,0,VALID,19.6142,VALID,118,VALID,1.52322,
2002-03-10, 01:15:00,VALID,918.401,VALID,0,VALID,93.2506,VALID,0.0169808,VALID,19.6108,VALID,86,VALID,1.70107,
2002-03-10, 01:16:00,VALID,918.377,VALID,0,VALID,92.6656,VALID,-0.0169808,VALID,19.6428,VALID,116,VALID,2.16124,
2002-03-10, 01:17:01,VALID,918.356,VALID,0,VALID,91.9141,VALID,0,VALID,19.779,VALID,101,VALID,1.56771,
2002-03-10, 01:18:01,VALID,918.312,VALID,0,VALID,91.2122,VALID,0,VALID,19.9241,VALID,108,VALID,1.3137,
2002-03-10, 01:19:00,VALID,918.259,VALID,0,VALID,90.8638,VALID,0.0169808,VALID,19.9656,VALID,78,VALID,1.33036,
2002-03-10, 01:20:00,VALID,918.228,VALID,0,VALID,90.9897,VALID,0,VALID,19.9527,VALID,85,VALID,1.39527,
2002-03-10, 01:21:00,VALID,918.192,VALID,0,VALID,91.1105,VALID,0,VALID,19.9134,VALID,71,VALID,1.16763,
2002-03-10, 01:22:01,VALID,918.155,VALID,0,VALID,91.0253,VALID,0.0169808,VALID,19.9052,VALID,87,VALID,1.23199,
2002-03-10, 01:23:00,VALID,918.145,VALID,0,VALID,91.2491,VALID,0,VALID,19.8593,VALID,85,VALID,1.28586,
2002-03-10, 01:24:01,VALID,918.122,VALID,0,VALID,91.3317,VALID,0,VALID,19.8491,VALID,107,VALID,2.13683,
2002-03-10, 01:25:01,VALID,918.111,VALID,0,VALID,90.9096,VALID,0,VALID,19.9112,VALID,91,VALID,2.00211,
2002-03-10, 01:26:00,VALID,918.125,VALID,0,VALID,90.6883,VALID,0,VALID,19.9659,VALID,103,VALID,1.30179,
2002-03-10, 01:27:00,VALID,918.123,VALID,0,VALID,90.7887,VALID,0,VALID,19.9758,VALID,92,VALID,1.07422,
2002-03-10, 01:28:01,VALID,918.131,VALID,0,VALID,90.6044,VALID,0.0169808,VALID,19.9788,VALID,79,VALID,1.33724,
2002-03-10, 01:29:00,VALID,918.122,VALID,0,VALID,90.5688,VALID,0,VALID,20.0007,VALID,106,VALID,1.29774,
2002-03-10, 01:30:00,VALID,918.104,VALID,0,VALID,90.5815,VALID,0,VALID,20.024,VALID,99,VALID,1.32895,
2002-03-10, 01:31:00,VALID,918.118,VALID,0,VALID,90.5827,VALID,0,VALID,20.0141,VALID,135,VALID,0.986111,
2002-03-10, 01:32:01,VALID,918.126,VALID,0,VALID,90.4696,VALID,0,VALID,20.0071,VALID,97,VALID,1.04514,
2002-03-10, 01:33:00,VALID,918.148,VALID,0,VALID,90.3246,VALID,0,VALID,20.0593,VALID,60,VALID,1.19091,
2002-03-10, 01:34:00,VALID,918.161,VALID,0,VALID,89.9419,VALID,0,VALID,20.0755,VALID,88,VALID,0.697991,
2002-03-10, 01:35:00,VALID,918.169,VALID,0,VALID,90.1669,VALID,0.0169808,VALID,20.0461,VALID,145,VALID,0.817145,
2002-03-10, 01:36:00,VALID,918.173,VALID,0,VALID,90.3958,VALID,0,VALID,20.0138,VALID,115,VALID,1.21897,
2002-03-10, 01:37:00,VALID,918.172,VALID,0,VALID,90.3679,VALID,0.0169808,VALID,20.0076,VALID,136,VALID,1.19314,
2002-03-10, 01:38:01,VALID,918.187,VALID,0,VALID,90.2102,VALID,0,VALID,20.0138,VALID,132,VALID,0.898638,
2002-03-10, 01:39:00,VALID,918.187,VALID,0,VALID,90.2165,VALID,0,VALID,19.9984,VALID,124,VALID,0.735937,
2002-03-10, 01:40:01,VALID,918.188,VALID,0,VALID,90.3132,VALID,0.0169808,VALID,19.9686,VALID,122,VALID,0.98353,
2002-03-10, 01:41:01,VALID,918.178,VALID,0,VALID,90.3513,VALID,0.0169808,VALID,19.946,VALID,121,VALID,0.810938,
2002-03-10, 01:42:00,VALID,918.192,VALID,0,VALID,90.7493,VALID,0.0169808,VALID,19.9107,VALID,137,VALID,1.5842,
2002-03-10, 01:43:00,VALID,918.182,VALID,0,VALID,90.5866,VALID,0,VALID,19.9559,VALID,123,VALID,1.62109,
2002-03-10, 01:44:00,VALID,918.202,VALID,0,VALID,90.3946,VALID,0.0339617,VALID,19.9848,VALID,118,VALID,0.681207,
2002-03-10, 01:45:00,VALID,918.215,VALID,0,VALID,90.4124,VALID,0,VALID,19.9952,VALID,114,VALID,0.931538,
2002-03-10, 01:46:01,VALID,918.216,VALID,0,VALID,90.4149,VALID,0,VALID,19.995,VALID,111,VALID,1.0829,
2002-03-10, 01:47:01,VALID,918.226,VALID,0,VALID,90.2521,VALID,0,VALID,20.0114,VALID,126,VALID,1.30339,
2002-03-10, 01:48:01,VALID,918.22,VALID,0,VALID,90.0131,VALID,0,VALID,20.0429,VALID,142,VALID,1.28305,
2002-03-10, 01:49:01,VALID,918.215,VALID,0,VALID,89.5858,VALID,0,VALID,20.1279,VALID,149,VALID,1.71669,
2002-03-10, 01:50:01,VALID,918.196,VALID,0,VALID,89.0784,VALID,0,VALID,20.1533,VALID,146,VALID,1.75,
2002-03-10, 01:51:01,VALID,918.195,VALID,0,VALID,88.7262,VALID,0,VALID,20.2077,VALID,116,VALID,1.76563,
2002-03-10, 01:52:01,VALID,918.175,VALID,0,VALID,88.2112,VALID,0.0169808,VALID,20.3014,VALID,131,VALID,1.5013,
2002-03-10, 01:53:01,VALID,918.177,VALID,0,VALID,87.9721,VALID,0,VALID,20.3533,VALID,134,VALID,1.52624,
2002-03-10, 01:54:01,VALID,918.147,VALID,0,VALID,87.5093,VALID,0,VALID,20.4249,VALID,121,VALID,1.53103,
2002-03-10, 01:55:01,VALID,918.152,VALID,0,VALID,87.2206,VALID,0.0169808,VALID,20.4759,VALID,107,VALID,1.11128,
2002-03-10, 01:56:01,VALID,918.148,VALID,0,VALID,87.1901,VALID,0,VALID,20.4791,VALID,95,VALID,1.72768,
2002-03-10, 01:57:01,VALID,918.121,VALID,0,VALID,86.9917,VALID,0.0169808,VALID,20.492,VALID,78,VALID,1.3954,
2002-03-10, 01:58:01,VALID,918.102,VALID,0,VALID,86.8747,VALID,0,VALID,20.5082,VALID,145,VALID,1.47873,
2002-03-10, 01:59:01,VALID,918.078,VALID,0,VALID,86.6853,VALID,0,VALID,20.5407,VALID,119,VALID,1.12977,
2002-03-10, 02:00:01,VALID,918.05,VALID,0,VALID,86.6929,VALID,0.0169808,VALID,20.5532,VALID,111,VALID,0.860403,
2002-03-10, 02:01:01,VALID,918.01,VALID,0,VALID,86.8379,VALID,0,VALID,20.5407,VALID,137,VALID,1.29188,
2002-03-10, 02:02:01,VALID,917.972,VALID,0,VALID,86.9485,VALID,0.0169808,VALID,20.5049,VALID,148,VALID,1.11784,
2002-03-10, 02:03:01,VALID,917.963,VALID,0,VALID,87.1405,VALID,0,VALID,20.4532,VALID,143,VALID,1.07452,
2002-03-10, 02:04:01,VALID,917.931,VALID,0,VALID,87.4699,VALID,-0.0169808,VALID,20.3946,VALID,139,VALID,1.32567,
2002-03-10, 02:05:01,VALID,917.906,VALID,0,VALID,87.8005,VALID,0.0339617,VALID,20.3332,VALID,122,VALID,1.16068,
2002-03-10, 02:06:01,VALID,917.915,VALID,0,VALID,88.2608,VALID,0,VALID,20.2664,VALID,140,VALID,1.17299,
2002-03-10, 02:07:01,VALID,917.912,VALID,0,VALID,88.5787,VALID,0.0169808,VALID,20.188,VALID,132,VALID,1.65408,
2002-03-10, 02:08:01,VALID,917.879,VALID,0,VALID,88.4007,VALID,0.0169808,VALID,20.1751,VALID,146,VALID,1.16406,
2002-03-10, 02:09:01,VALID,917.885,VALID,0,VALID,88.2417,VALID,0.0169808,VALID,20.2034,VALID,136,VALID,1.36853,
2002-03-10, 02:10:01,VALID,917.873,VALID,0,VALID,88.2557,VALID,0,VALID,20.2139,VALID,112,VALID,1.15498,
2002-03-10, 02:11:00,VALID,917.874,VALID,0,VALID,88.6931,VALID,-0.0339617,VALID,20.1657,VALID,139,VALID,1.07098,
2002-03-10, 02:12:00,VALID,917.874,VALID,0,VALID,89.1153,VALID,-0.0169808,VALID,20.1108,VALID,152,VALID,1.03581,
2002-03-10, 02:13:00,VALID,917.873,VALID,0,VALID,89.3887,VALID,-0.0169808,VALID,20.0591,VALID,164,VALID,0.873915,
2002-03-10, 02:14:00,VALID,917.865,VALID,0,VALID,89.6736,VALID,-0.0169808,VALID,19.9974,VALID,160,VALID,0.951823,
2002-03-10, 02:15:00,VALID,917.861,VALID,0,VALID,89.9469,VALID,-0.0169808,VALID,19.9328,VALID,149,VALID,0.928248,
2002-03-10, 02:16:00,VALID,917.845,VALID,0,VALID,90.3348,VALID,0,VALID,19.8747,VALID,154,VALID,1.28559,
2002-03-10, 02:17:00,VALID,917.837,VALID,0,VALID,90.6273,VALID,-0.0169808,VALID,19.8329,VALID,161,VALID,1.46745,
2002-03-10, 02:18:00,VALID,917.822,VALID,0,VALID,90.8701,VALID,0,VALID,19.7949,VALID,158,VALID,1.58654,
2002-03-10, 02:19:00,VALID,917.826,VALID,0,VALID,91.0126,VALID,0,VALID,19.7263,VALID,140,VALID,0.987946,
2002-03-10, 02:20:00,VALID,917.831,VALID,0,VALID,91.2478,VALID,0,VALID,19.6644,VALID,132,VALID,0.687078,
2002-03-10, 02:21:00,VALID,917.837,VALID,0,VALID,91.5492,VALID,0,VALID,19.6162,VALID,125,VALID,1.13884,
2002-03-10, 02:22:00,VALID,917.844,VALID,0,VALID,91.6929,VALID,-0.0169808,VALID,19.6008,VALID,133,VALID,1.20313,
2002-03-10, 02:23:00,VALID,917.853,VALID,0,VALID,91.7081,VALID,-0.0169808,VALID,19.5809,VALID,130,VALID,1.33994,
2002-03-10, 02:24:00,VALID,917.837,VALID,0,VALID,91.5555,VALID,-0.0169808,VALID,19.61,VALID,147,VALID,1.69286,
2002-03-10, 02:25:00,VALID,917.834,VALID,0,VALID,91.4665,VALID,-0.0169808,VALID,19.6649,VALID,145,VALID,2.03801,
2002-03-10, 02:26:00,VALID,917.826,VALID,0,VALID,91.333,VALID,-0.0169808,VALID,19.7037,VALID,133,VALID,1.75915,
2002-03-10, 02:27:00,VALID,917.85,VALID,0,VALID,91.216,VALID,0,VALID,19.7328,VALID,129,VALID,1.36306,
2002-03-10, 02:28:00,VALID,917.853,VALID,0,VALID,91.2097,VALID,-0.0169808,VALID,19.7263,VALID,143,VALID,1.54926,
2002-03-10, 02:29:00,VALID,917.844,VALID,0,VALID,91.0723,VALID,-0.0169808,VALID,19.7489,VALID,129,VALID,1.32943,
2002-03-10, 02:30:00,VALID,917.817,VALID,0,VALID,90.8167,VALID,0,VALID,19.7815,VALID,120,VALID,1.11822,
2002-03-10, 02:31:00,VALID,917.811,VALID,0,VALID,90.9884,VALID,-0.0339617,VALID,19.7847,VALID,132,VALID,1.59136,
2002-03-10, 02:32:00,VALID,917.792,VALID,0,VALID,91.2008,VALID,0,VALID,19.7748,VALID,142,VALID,2.08442,
2002-03-10, 02:33:00,VALID,917.782,VALID,0,VALID,91.2694,VALID,0,VALID,19.7551,VALID,149,VALID,2.05168,
2002-03-10, 02:34:00,VALID,917.774,VALID,0,VALID,91.3572,VALID,0,VALID,19.7293,VALID,142,VALID,1.35156,
2002-03-10, 02:35:00,VALID,917.778,VALID,0,VALID,91.6534,VALID,0,VALID,19.7164,VALID,143,VALID,2.63133,
2002-03-10, 02:36:00,VALID,917.771,VALID,0,VALID,91.8175,VALID,-0.0169808,VALID,19.6841,VALID,143,VALID,2.34665,
2002-03-10, 02:37:00,VALID,917.754,VALID,0,VALID,91.9663,VALID,0,VALID,19.6642,VALID,154,VALID,2.13954,
2002-03-10, 02:38:00,VALID,917.736,VALID,0,VALID,92.1684,VALID,-0.0169808,VALID,19.6428,VALID,154,VALID,1.81751,
2002-03-10, 02:39:00,VALID,917.728,VALID,0,VALID,92.3541,VALID,0,VALID,19.571,VALID,157,VALID,1.76808,
2002-03-10, 02:40:00,VALID,917.722,VALID,0,VALID,92.6237,VALID,-0.0509425,VALID,19.524,VALID,157,VALID,1.894,
2002-03-10, 02:41:00,VALID,917.715,VALID,0,VALID,92.9238,VALID,-0.118866,VALID,19.4497,VALID,152,VALID,1.65357,
2002-03-10, 02:42:00,VALID,917.704,VALID,0,VALID,93.3523,VALID,-0.101885,VALID,19.4214,VALID,152,VALID,1.83724,
2002-03-10, 02:43:00,VALID,917.692,VALID,0,VALID,93.571,VALID,-0.101885,VALID,19.3886,VALID,145,VALID,2.19293,
2002-03-10, 02:44:00,VALID,917.7,VALID,0,VALID,93.5888,VALID,-0.101885,VALID,19.3918,VALID,154,VALID,1.92296,
2002-03-10, 02:45:00,VALID,917.687,VALID,0,VALID,93.5837,VALID,-0.118866,VALID,19.3953,VALID,150,VALID,2.1544,
2002-03-10, 02:46:00,VALID,917.687,VALID,0,VALID,93.4655,VALID,-0.135847,VALID,19.3888,VALID,145,VALID,1.68403,
2002-03-10, 02:47:00,VALID,917.674,VALID,0,VALID,93.4922,VALID,-0.118866,VALID,19.399,VALID,147,VALID,2.05621,
2002-03-10, 02:48:00,VALID,917.675,VALID,0,VALID,93.4121,VALID,-0.118866,VALID,19.3918,VALID,145,VALID,1.65705,
2002-03-10, 02:49:00,VALID,917.677,VALID,0,VALID,93.3129,VALID,-0.101885,VALID,19.3985,VALID,149,VALID,1.39576,
2002-03-10, 02:50:00,VALID,917.671,VALID,0,VALID,93.1832,VALID,-0.118866,VALID,19.4214,VALID,145,VALID,1.85389,
2002-03-10, 02:51:00,VALID,917.68,VALID,0,VALID,92.9975,VALID,-0.118866,VALID,19.451,VALID,141,VALID,1.60312,
2002-03-10, 02:52:00,VALID,917.699,VALID,0,VALID,92.8907,VALID,-0.135847,VALID,19.4438,VALID,140,VALID,1.82378,
2002-03-10, 02:53:00,VALID,917.695,VALID,0,VALID,92.8487,VALID,-0.118866,VALID,19.477,VALID,141,VALID,1.84896,
2002-03-10, 02:54:00,VALID,917.696,VALID,0,VALID,92.6211,VALID,-0.101885,VALID,19.4987,VALID,144,VALID,1.96362,
2002-03-10, 02:55:00,VALID,917.701,VALID,0,VALID,92.1761,VALID,-0.0509425,VALID,19.5305,VALID,144,VALID,1.95608,
2002-03-10, 02:56:00,VALID,917.708,VALID,0,VALID,91.5581,VALID,-0.0339617,VALID,19.6068,VALID,145,VALID,1.71473,
2002-03-10, 02:57:00,VALID,917.711,VALID,0,VALID,91.1779,VALID,-0.0169808,VALID,19.6883,VALID,149,VALID,1.08181,
2002-03-10, 02:58:00,VALID,917.693,VALID,0,VALID,90.9413,VALID,-0.0169808,VALID,19.7035,VALID,108,VALID,0.993056,
2002-03-10, 02:59:00,VALID,917.692,VALID,0,VALID,90.9477,VALID,-0.0169808,VALID,19.6654,VALID,109,VALID,1.42643,
2002-03-10, 03:00:00,VALID,917.668,VALID,0,VALID,91.3737,VALID,-0.0169808,VALID,19.6391,VALID,103,VALID,1.60485,
2002-03-10, 03:01:00,VALID,917.648,VALID,0,VALID,91.5721,VALID,-0.0339617,VALID,19.6555,VALID,107,VALID,1.95399,
2002-03-10, 03:02:00,VALID,917.615,VALID,0,VALID,91.5034,VALID,0,VALID,19.6528,VALID,108,VALID,1.22569,
2002-03-10, 03:03:00,VALID,917.592,VALID,0,VALID,91.7475,VALID,0,VALID,19.6364,VALID,124,VALID,1.04267,
2002-03-10, 03:04:00,VALID,917.565,VALID,0,VALID,91.9599,VALID,0,VALID,19.6013,VALID,115,VALID,1.58549,
2002-03-10, 03:05:00,VALID,917.57,VALID,0,VALID,92.3439,VALID,0,VALID,19.5293,VALID,142,VALID,1.7084,
2002-03-10, 03:06:00,VALID,917.568,VALID,0,VALID,92.5626,VALID,0.0169808,VALID,19.4979,VALID,118,VALID,1.07656,
2002-03-10, 03:07:00,VALID,917.575,VALID,0,VALID,92.7547,VALID,-0.0169808,VALID,19.4654,VALID,146,VALID,1.96159,
2002-03-10, 03:08:00,VALID,917.588,VALID,0,VALID,93.0369,VALID,0,VALID,19.4395,VALID,146,VALID,1.86098,
2002-03-10, 03:09:00,VALID,917.578,VALID,0,VALID,93.159,VALID,0,VALID,19.4294,VALID,149,VALID,2.02857,
2002-03-10, 03:10:00,VALID,917.587,VALID,0,VALID,93.1094,VALID,-0.0169808,VALID,19.4361,VALID,157,VALID,2.16617,
2002-03-10, 03:11:00,VALID,917.585,VALID,0,VALID,93.0357,VALID,-0.0679233,VALID,19.4594,VALID,144,VALID,1.83862,
2002-03-10, 03:12:00,VALID,917.596,VALID,0,VALID,92.9441,VALID,-0.0339617,VALID,19.4358,VALID,158,VALID,1.35829,
2002-03-10, 03:13:00,VALID,917.602,VALID,0,VALID,93.0013,VALID,-0.0509425,VALID,19.4105,VALID,139,VALID,1.04275,
2002-03-10, 03:14:00,VALID,917.624,VALID,0,VALID,93.1272,VALID,-0.0339617,VALID,19.3424,VALID,130,VALID,1.07986,
2002-03-10, 03:15:00,VALID,917.609,VALID,0,VALID,93.6384,VALID,-0.0679233,VALID,19.2947,VALID,146,VALID,1.86308,
2002-03-10, 03:16:00,VALID,917.59,VALID,0,VALID,93.95,VALID,-0.0339617,VALID,19.2584,VALID,140,VALID,1.34787,
2002-03-10, 03:17:00,VALID,917.561,VALID,0,VALID,93.95,VALID,-0.0339617,VALID,19.2527,VALID,132,VALID,1.09549,
2002-03-10, 03:18:00,VALID,917.544,VALID,0,VALID,93.8648,VALID,-0.0849042,VALID,19.2264,VALID,139,VALID,0.902043,
2002-03-10, 03:19:00,VALID,917.519,VALID,0,VALID,93.8851,VALID,-0.0169808,VALID,19.2,VALID,130,VALID,1.31027,
2002-03-10, 03:20:00,VALID,917.508,VALID,0,VALID,93.9525,VALID,-0.0339617,VALID,19.2042,VALID,135,VALID,1.45819,
2002-03-10, 03:21:00,VALID,917.494,VALID,0,VALID,93.8393,VALID,-0.0509425,VALID,19.2137,VALID,148,VALID,1.40246,
2002-03-10, 03:22:00,VALID,917.53,VALID,0,VALID,93.5125,VALID,-0.0169808,VALID,19.2132,VALID,124,VALID,1.33116,
2002-03-10, 03:23:00,VALID,917.533,VALID,0,VALID,93.3053,VALID,-0.0509425,VALID,19.2328,VALID,119,VALID,1.57973,
2002-03-10, 03:24:00,VALID,917.538,VALID,0,VALID,92.7864,VALID,-0.0679233,VALID,19.327,VALID,136,VALID,1.47723,
2002-03-10, 03:25:00,VALID,917.565,VALID,0,VALID,92.4749,VALID,0.0169808,VALID,19.3871,VALID,143,VALID,1.56102,
2002-03-10, 03:26:00,VALID,917.557,VALID,0,VALID,92.2346,VALID,0.0339617,VALID,19.4127,VALID,150,VALID,1.31696,
2002-03-10, 03:27:00,VALID,917.574,VALID,0,VALID,92.2575,VALID,0.0849042,VALID,19.4155,VALID,146,VALID,1.2526,
2002-03-10, 03:28:00,VALID,917.572,VALID,0,VALID,92.2308,VALID,0.0509425,VALID,19.4095,VALID,156,VALID,0.948568,
2002-03-10, 03:29:00,VALID,917.577,VALID,0,VALID,92.3719,VALID,0.0849042,VALID,19.3765,VALID,144,VALID,1.65885,
2002-03-10, 03:30:00,VALID,917.594,VALID,0,VALID,92.3058,VALID,0.0509425,VALID,19.4127,VALID,131,VALID,1.88775,
2002-03-10, 03:31:00,VALID,917.588,VALID,0,VALID,91.703,VALID,0.0339617,VALID,19.5064,VALID,135,VALID,1.32791,
2002-03-10, 03:32:00,VALID,917.61,VALID,0,VALID,91.6293,VALID,0.0339617,VALID,19.529,VALID,135,VALID,1.53885,
2002-03-10, 03:33:00,VALID,917.618,VALID,0,VALID,91.7272,VALID,0.0169808,VALID,19.5424,VALID,152,VALID,2.50581,
2002-03-10, 03:34:00,VALID,917.626,VALID,0,VALID,91.6153,VALID,0.0169808,VALID,19.5777,VALID,161,VALID,2.13862,